User: anonymous   Login
Location: Elk Forest
(39.5314°N, 75.8738°W)
Time: 06:18:41
(UTC-04:00)
Language:

Resurs 01 Rocket - Orbit

View from above orbital plane
View from above orbital plane
View from above satellite
View from above satellite

Ground track
Ground track

The orbit data is extracted from the following two-line orbital elements,

1 23343U 94074B   17116.71849558 +.00000032 +00000-0 +12207-4 0  9993
2 23343 098.1587 153.2763 0005826 230.8473 242.1459 14.76696160209026
Epoch (UTC): 26 April 2017 17:14:38
Eccentricity: 0.0005826
inclination: 98.1587°
perigee height: 635 km
apogee height: 644 km
right ascension of ascending node: 153.2763°
argument of perigee: 230.8473°
revolutions per day: 14.76696160
mean anomaly at epoch: 242.1459°
orbit number at epoch: 20902

The dashed part of the orbit path shows where the satellite is in the earth's shadow,  

DLR